Theta_e
317 317 318 318 317 317 316 315 312 312 313 312 312 313 314 314 315 315 315 315 315 315 315 315 315 315 315 315 314 315 314 314 321 327 331 336 334 330 330 331 332 332 331 332 343 349 342 341 343 342 338 337 338 338 339 340 341 339 341 340 332 337 340 343 349 347 347 356 360 359 358 359 360 359 356 355 356 358 358 356 355 355 356 356 356 355 355 354
317 317 318 318 317 317 317 316 314 312 312 312 312 312 313 314 314 315 315 314 315 315 315 315 314 314 315 314 315 315 313 317 325 331 333 336 331 329 332 331 332 332 331 339 349 345 333 335 336 335 336 335 336 336 338 338 338 339 343 340 335 343 344 346 350 349 351 350 355 359 357 356 354 354 355 355 355 358 361 358 356 356 354 354 355 356 355 354
317 317 317 317 317 317 317 316 314 312 313 313 311 311 312 313 313 315 314 314 315 314 315 315 314 315 315 314 315 313 315 325 333 334 335 334 330 331 333 331 332 331 332 342 347 340 333 333 333 335 334 334 335 336 337 337 336 338 342 341 341 346 346 348 349 348 351 347 350 355 355 356 352 350 352 353 353 355 361 359 357 358 356 354 355 357 356 354
317 317 317 317 317 317 317 316 315 313 312 313 312 311 312 312 313 314 314 314 314 314 314 314 314 314 314 315 314 314 322 333 337 336 334 330 331 333 333 333 333 331 331 338 343 339 334 333 333 333 333 334 335 335 337 337 337 337 341 343 343 345 345 345 346 347 348 346 349 351 353 355 352 350 349 353 356 354 359 359 358 358 357 355 354 357 358 356
317 317 317 317 317 317 316 316 314 313 313 314 312 311 311 312 313 313 314 314 314 314 314 313 314 314 315 316 313 317 327 334 336 337 331 329 332 333 333 334 332 330 333 339 340 338 334 333 334 333 332 334 334 334 336 336 336 337 339 342 342 343 342 343 346 347 346 346 348 346 349 351 349 350 347 351 355 354 356 355 356 354 355 356 355 356 358 358
317 317 317 316 316 316 316 315 313 312 313 314 313 312 311 311 311 312 313 313 314 313 313 313 314 314 315 315 315 323 331 332 338 338 329 330 333 333 335 334 332 329 335 341 338 336 334 333 333 333 333 333 333 333 334 336 336 337 339 341 343 343 342 344 347 347 346 347 346 343 344 346 346 349 348 348 350 352 354 354 356 354 354 355 357 356 356 358
317 317 316 316 316 315 316 315 313 311 314 314 314 312 311 312 311 312 312 312 313 313 313 313 313 315 315 315 320 330 333 331 339 335 329 331 332 334 334 332 331 329 337 341 338 335 332 333 334 332 333 332 332 332 332 335 335 337 338 340 343 343 343 344 345 348 352 352 347 345 344 344 346 347 348 348 348 350 351 353 354 353 355 355 355 356 356 357
316 317 316 316 316 316 315 314 313 312 313 314 314 312 312 312 311 312 312 312 312 312 312 312 314 315 314 317 326 332 332 334 337 332 330 331 332 333 331 332 333 333 338 339 336 334 331 333 333 332 334 332 331 332 332 333 334 337 337 339 342 343 344 343 343 347 353 353 349 349 348 346 344 345 348 347 348 349 349 353 354 354 355 353 353 354 354 355
316 317 316 316 316 315 314 314 313 313 313 313 313 312 312 311 311 312 311 312 312 312 312 312 314 314 315 325 333 333 334 338 335 330 331 331 332 330 330 335 338 337 338 337 335 334 333 333 332 332 332 332 332 331 331 333 331 334 338 340 342 343 344 343 345 345 347 349 350 350 350 348 342 344 349 346 347 349 349 352 352 354 354 352 354 355 354 354
316 316 316 315 315 314 314 314 314 313 312 313 312 312 312 311 311 311 311 312 311 311 311 312 315 314 319 330 331 331 336 339 337 334 334 334 334 332 333 338 341 338 336 336 335 334 334 332 333 333 333 333 332 331 331 332 330 332 338 340 340 343 344 343 344 344 344 347 349 350 348 347 345 348 350 347 346 347 349 351 348 352 356 355 355 355 356 355
316 316 316 315 314 313 314 315 315 313 312 312 311 311 311 311 311 311 311 311 311 312 311 313 314 314 322 330 326 330 336 336 338 338 338 338 337 336 337 339 338 337 335 336 335 335 335 334 334 333 333 332 331 332 331 332 331 332 337 340 340 341 343 344 345 344 345 346 347 349 349 349 351 350 350 347 347 347 350 353 353 354 358 357 354 355 357 354
316 316 316 315 314 313 314 315 316 314 312 311 311 311 311 310 310 311 311 311 311 311 311 313 314 316 328 332 326 331 334 334 335 335 338 338 338 338 338 338 336 335 335 335 335 335 334 335 335 332 333 331 332 332 331 333 333 332 337 340 340 341 343 343 345 347 347 346 347 350 347 349 355 352 348 347 346 348 350 353 356 357 356 353 352 355 356 355
316 316 315 314 313 313 313 315 316 315 313 311 311 311 310 310 310 310 310 310 311 311 311 314 314 319 329 331 325 330 332 334 333 333 335 336 338 337 336 336 336 335 335 334 334 335 334 334 334 333 332 332 332 331 331 335 333 335 336 337 338 338 341 344 346 349 349 348 350 347 337 342 356 352 347 348 345 346 350 350 353 355 354 352 353 353 355 357
315 315 315 315 314 313 314 315 316 316 314 311 311 310 310 310 310 310 310 311 311 312 313 314 313 321 330 331 328 330 331 333 332 332 334 335 336 336 336 336 335 334 334 335 335 334 334 336 334 333 333 333 332 330 332 334 333 337 336 337 337 327 331 343 344 347 348 346 348 345 334 339 355 352 347 349 346 345 348 349 349 352 353 353 354 353 353 357
315 315 315 315 314 314 315 315 316 316 314 312 310 310 310 310 310 310 310 310 311 312 313 316 319 325 331 330 330 328 329 331 331 333 333 334 335 334 336 336 335 335 335 334 335 334 335 334 334 333 332 332 332 330 333 334 334 337 329 327 333 324 328 344 342 343 346 344 347 342 334 342 352 347 348 351 349 348 346 346 348 351 353 352 353 353 349 351
315 315 315 315 315 314 315 316 316 315 313 311 310 310 310 309 310 310 310 310 311 312 314 323 330 331 329 327 329 327 327 329 330 333 333 335 335 334 335 335 336 335 334 335 334 334 335 334 333 333 332 331 331 331 330 326 326 331 325 318 322 323 327 339 341 341 344 345 347 341 336 344 350 345 348 351 348 349 346 342 344 347 349 349 350 350 347 345
314 315 315 316 316 314 315 316 316 314 312 310 310 310 310 310 310 310 310 310 311 315 319 327 332 329 328 327 326 326 327 328 330 333 333 335 335 335 336 335 336 335 335 335 334 334 334 333 332 332 333 332 331 332 323 314 314 322 324 318 320 327 326 329 337 341 343 344 345 342 341 344 348 346 346 348 347 348 346 342 343 343 344 346 345 345 345 345
314 315 316 316 316 315 316 317 316 313 311 310 310 310 309 310 309 309 314 315 316 323 327 329 328 324 324 324 325 326 327 328 331 334 333 334 335 334 336 335 335 334 334 334 334 334 332 332 333 332 333 331 333 330 317 312 315 315 317 315 316 323 324 325 333 340 343 340 340 341 341 343 346 347 347 345 347 346 344 343 342 343 343 344 343 343 344 345
314 315 316 317 316 316 317 317 315 312 310 310 313 316 315 314 312 313 321 324 323 329 333 330 326 322 322 324 325 327 327 329 331 333 333 334 333 334 335 335 334 334 333 333 333 333 332 331 330 327 328 330 332 330 322 323 325 321 320 318 315 317 321 329 335 339 342 339 340 340 339 342 343 346 348 345 346 347 346 345 343 343 343 343 344 345 345 347
315 316 317 317 317 317 317 317 314 311 310 313 320 326 326 325 326 324 325 327 325 327 328 327 325 322 323 326 326 327 329 330 331 332 332 333 333 333 334 333 334 334 334 334 333 333 332 330 328 326 329 331 332 332 330 329 328 328 325 321 319 317 319 331 337 339 341 335 337 342 340 341 343 346 350 348 349 349 346 346 344 344 344 346 346 345 348 349
315 316 318 319 317 316 317 317 314 310 309 315 322 330 332 328 330 328 325 326 327 326 323 324 325 324 324 325 327 328 328 328 331 331 331 332 332 333 333 333 333 333 333 333 332 334 333 328 327 331 331 332 332 332 330 330 329 329 324 320 319 318 321 330 335 336 338 332 333 341 340 340 344 347 350 349 349 347 345 346 345 344 345 348 348 348 350 350
315 316 318 318 317 316 317 316 314 310 309 315 321 327 328 325 324 325 324 325 326 327 325 323 324 324 324 325 326 326 325 326 327 329 330 331 332 332 333 332 332 333 333 332 332 332 331 328 330 334 332 331 332 331 330 330 330 327 325 320 316 319 324 330 336 336 335 332 335 341 337 337 345 347 347 348 347 347 347 347 344 344 347 347 348 348 349 351
315 317 317 318 317 316 316 316 313 309 309 317 324 323 323 324 323 323 323 323 324 327 326 323 322 323 323 324 325 325 324 324 325 328 330 330 331 332 332 332 331 331 332 332 332 326 322 328 334 333 331 332 330 329 330 329 329 327 325 318 314 321 320 319 331 339 335 332 338 342 334 337 346 346 348 348 349 352 352 349 345 345 348 347 346 347 347 351
315 316 317 317 316 316 316 315 313 309 309 317 322 322 322 322 322 323 324 324 325 327 327 324 323 322 323 323 324 325 323 324 325 328 330 330 331 331 331 332 331 331 331 333 333 328 326 331 334 332 331 332 329 329 331 326 323 326 327 320 317 322 320 319 329 335 334 330 338 338 324 331 345 343 351 355 352 355 353 353 353 350 350 348 345 346 347 349
315 315 316 316 316 317 315 313 313 312 314 318 319 321 321 321 323 324 326 326 324 326 328 325 324 322 324 325 325 325 324 324 326 328 331 331 331 331 331 332 331 332 330 331 332 331 331 333 333 333 332 331 329 329 330 325 319 319 326 326 323 325 324 324 327 324 319 318 332 333 314 321 344 343 350 356 353 354 353 358 361 356 352 348 346 346 348 351
316 316 316 316 317 316 314 317 319 319 321 321 319 319 318 321 325 325 329 326 318 324 328 324 324 323 324 325 325 325 324 324 326 328 331 331 330 331 331 331 332 331 331 333 332 330 332 333 333 332 332 332 330 328 330 329 318 313 322 329 328 329 325 323 324 318 311 312 328 333 315 317 335 341 348 353 352 355 355 359 362 359 354 348 348 348 349 354
317 318 317 316 317 315 318 326 326 323 322 320 320 320 320 325 326 326 328 317 312 324 328 323 322 323 323 325 326 324 321 323 327 327 329 331 331 330 329 331 331 329 332 331 324 326 332 332 332 333 332 331 327 325 330 331 319 315 325 329 327 327 325 324 322 317 315 317 324 329 321 318 324 334 345 351 352 357 355 355 358 356 353 346 348 350 350 354
319 319 318 317 316 315 322 327 326 327 323 322 324 320 322 325 325 329 325 312 314 326 326 322 323 322 323 325 325 324 323 325 325 325 330 331 329 330 328 330 330 329 332 327 317 324 333 332 331 334 331 328 327 327 330 330 323 323 328 328 327 326 326 327 324 318 320 319 314 319 322 319 321 334 346 353 354 356 355 354 355 353 351 349 349 349 352 354
318 318 318 318 315 315 320 319 321 329 327 325 325 321 323 325 326 331 322 313 319 326 324 323 324 322 323 325 324 325 327 327 325 327 331 330 329 330 328 328 330 329 330 328 323 328 333 332 332 333 331 328 329 330 331 329 327 328 329 328 327 327 327 328 325 319 319 318 311 315 318 316 320 332 340 344 348 353 356 354 354 352 351 356 352 348 353 353
317 318 318 318 315 315 317 318 320 324 326 326 325 324 324 326 327 323 314 315 321 323 324 323 322 323 324 324 324 325 326 327 327 328 329 329 329 329 329 329 329 329 331 329 328 329 331 332 331 331 332 330 330 331 331 330 329 328 327 327 325 326 328 327 325 320 315 314 313 315 317 314 320 332 338 339 344 352 357 354 352 352 349 352 350 348 352 352
316 318 318 317 318 319 321 323 323 323 326 326 325 325 325 328 328 315 311 319 321 321 324 323 323 324 324 323 324 325 326 327 328 328 328 328 328 327 328 328 327 326 326 325 326 329 329 329 331 331 330 330 330 329 331 330 328 327 327 325 318 317 321 318 317 318 314 312 313 316 319 314 317 331 341 343 347 350 355 355 353 353 350 349 349 347 350 351
315 318 318 318 320 322 323 327 329 328 329 327 326 327 326 324 321 313 315 318 317 319 324 324 324 324 323 324 325 325 325 327 328 328 329 327 327 328 327 326 326 320 314 316 321 325 327 329 331 331 331 331 329 327 327 329 328 328 325 318 311 309 312 311 311 312 311 311 314 317 320 315 317 332 340 343 346 344 350 353 352 352 351 350 350 348 349 351
314 317 318 318 320 320 322 327 329 328 329 327 325 328 329 319 312 313 318 317 315 321 326 325 324 325 323 323 323 325 325 326 328 328 329 329 327 327 326 326 328 321 315 317 317 315 320 326 330 330 329 330 329 323 318 321 326 326 320 314 310 308 309 310 310 310 311 311 314 319 320 315 319 333 340 342 341 343 348 348 349 351 351 352 349 347 350 351
315 318 317 318 319 318 322 326 326 326 328 327 326 328 328 318 314 314 319 320 321 324 326 325 324 324 324 323 324 326 324 324 328 328 327 328 325 325 326 326 327 327 324 320 316 314 311 316 324 327 327 329 330 326 322 323 325 326 327 321 313 310 310 310 309 309 311 311 313 318 319 316 320 334 343 341 338 343 345 345 349 351 352 352 348 348 351 350
314 315 316 319 318 316 320 322 323 326 327 328 329 327 321 316 316 315 318 323 325 325 325 326 325 322 322 324 325 327 325 322 327 328 326 326 324 324 327 327 326 330 327 317 316 318 310 312 324 329 328 329 329 329 330 327 322 325 330 322 313 315 315 311 310 311 311 311 313 315 321 327 334 343 345 340 342 346 345 347 352 351 351 350 347 348 350 350
315 315 316 322 322 318 318 319 322 326 327 329 329 324 321 320 321 319 322 325 326 325 324 323 323 319 315 319 324 327 326 324 326 326 324 326 326 327 329 329 328 329 328 321 319 319 310 313 327 330 327 331 330 329 331 326 319 322 321 316 319 327 322 311 309 313 311 312 314 313 319 330 340 347 347 345 351 353 350 350 352 354 354 352 350 351 351 352
323 322 321 326 325 322 321 320 324 326 326 330 328 325 326 326 326 324 327 327 324 327 324 316 318 318 312 314 320 325 326 324 325 322 320 322 324 326 329 329 329 329 330 326 324 324 317 313 326 331 326 329 331 329 332 329 325 322 315 318 325 327 326 317 310 312 311 312 314 311 319 331 337 341 347 348 354 353 353 354 352 353 351 349 350 350 350 351
328 327 325 324 323 324 324 322 326 327 326 329 331 332 332 330 329 326 329 329 325 327 324 315 317 320 316 313 317 326 326 320 321 322 319 320 320 324 330 329 329 330 330 328 325 328 325 313 320 332 328 329 333 328 326 328 330 326 320 326 325 315 315 315 311 312 312 313 314 311 324 339 339 341 346 348 354 353 352 353 352 352 351 350 349 348 350 351
328 329 326 323 321 324 324 324 326 326 326 328 329 333 333 330 331 329 330 331 328 327 323 320 321 321 320 319 319 326 325 319 322 321 317 319 320 324 330 329 329 330 329 330 328 329 330 315 313 329 331 329 332 325 318 319 326 328 326 330 327 317 316 314 313 314 311 313 313 311 327 342 343 348 351 350 354 352 350 353 353 354 354 352 352 351 353 354
327 329 326 323 322 324 325 326 326 326 327 328 328 331 330 329 330 329 329 331 330 328 325 325 325 322 322 324 324 326 325 323 325 322 319 322 321 323 329 328 329 331 328 330 329 328 330 321 312 323 331 325 322 323 321 320 323 323 320 321 321 321 321 318 317 315 311 314 312 314 332 343 346 355 357 352 354 351 350 354 353 353 353 352 353 352 353 355
324 327 327 323 323 325 326 326 326 326 327 327 329 329 328 328 329 328 329 329 330 328 327 327 328 325 324 324 325 326 326 325 325 324 323 324 322 322 327 329 329 330 328 328 329 327 327 322 314 315 320 317 319 328 330 328 329 326 321 320 319 319 318 315 317 316 313 315 311 315 336 346 350 356 357 354 355 351 352 354 352 352 352 351 352 350 349 352
326 328 328 324 325 327 326 325 326 326 326 326 328 328 328 329 328 328 328 328 328 328 327 327 328 329 327 325 326 327 326 324 324 325 323 324 327 324 327 330 329 330 329 327 329 329 328 325 316 312 317 321 327 333 331 329 332 330 326 327 326 323 318 312 313 315 313 315 313 316 333 348 354 355 356 355 354 352 352 354 352 352 351 351 351 349 349 353
330 331 328 325 327 326 325 326 325 326 326 325 326 327 327 328 328 328 328 326 326 326 325 328 329 328 328 326 327 328 326 323 324 327 325 327 329 327 328 330 327 329 330 326 327 329 329 325 316 312 319 326 330 332 332 332 331 328 326 329 329 327 325 321 320 320 315 314 316 321 333 346 352 355 356 354 354 352 352 353 352 351 351 351 350 350 351 355
330 330 327 327 326 323 324 326 325 325 326 325 326 327 326 327 327 328 327 326 326 325 325 328 329 328 328 327 328 329 325 321 322 326 328 327 327 329 329 327 328 330 326 327 332 326 322 322 317 312 313 316 319 322 327 329 328 328 328 330 332 330 332 330 326 324 318 315 319 325 331 341 350 356 356 352 353 353 351 352 351 351 351 350 351 351 351 354
329 330 328 327 326 324 324 326 327 326 326 325 325 326 327 328 327 327 327 326 326 325 326 327 327 328 328 327 328 329 327 323 322 326 328 327 328 328 327 327 329 325 327 344 348 329 321 324 320 312 309 311 313 314 319 322 326 329 329 329 332 331 332 328 320 319 319 322 329 329 330 341 353 356 353 353 354 352 352 351 350 352 351 350 351 350 351 351
329 330 327 326 326 324 323 325 328 328 326 327 326 325 326 327 326 326 325 326 327 326 327 327 326 327 327 327 328 328 329 327 325 327 327 327 329 328 328 330 324 329 358 370 349 328 327 327 324 318 313 314 316 320 328 328 323 321 324 327 330 332 335 329 320 319 321 326 332 335 335 339 346 351 353 353 353 351 351 351 350 350 350 349 350 348 349 350
326 329 328 326 324 323 322 324 325 326 327 329 328 325 325 326 326 326 325 326 327 327 328 328 327 326 326 328 328 326 328 328 327 329 327 327 330 328 329 329 324 342 373 363 331 328 329 320 323 325 320 322 326 327 331 331 323 321 323 325 329 333 334 328 321 325 329 327 330 341 342 338 342 352 353 351 352 351 350 350 348 348 347 347 349 348 347 348
324 330 328 327 325 322 322 324 325 326 326 328 329 327 326 326 327 328 326 326 328 328 328 329 328 327 326 328 327 325 327 327 327 329 328 327 331 329 327 327 326 339 350 334 325 332 326 317 324 327 323 327 331 329 332 332 329 329 327 326 330 331 331 327 325 331 335 330 332 342 343 342 347 353 352 350 351 349 348 348 345 345 345 346 347 345 345 347
329 333 333 332 330 325 323 323 325 327 327 329 331 330 329 329 329 329 328 328 329 328 328 330 329 327 327 327 327 327 326 322 322 326 330 329 330 329 326 325 327 331 331 327 328 330 323 320 328 328 323 326 330 330 333 331 328 329 330 332 335 333 333 332 332 336 337 335 339 344 343 347 350 351 353 351 349 348 347 346 344 344 345 346 346 344 343 344
335 338 338 336 334 332 330 327 325 327 328 329 330 330 332 332 331 330 329 328 330 330 327 329 329 327 327 327 327 328 328 326 325 328 331 330 329 329 327 326 327 329 329 327 328 329 323 321 330 331 319 320 328 330 332 333 329 327 331 337 336 335 333 332 333 337 337 334 339 343 343 349 352 350 352 350 347 348 347 346 347 346 345 346 344 343 343 344
335 337 338 337 337 338 337 334 330 328 328 329 329 330 332 333 331 329 328 328 329 329 327 329 329 327 327 327 328 329 329 329 331 330 329 330 330 329 329 328 330 330 328 326 329 332 328 324 329 328 315 315 325 327 328 332 329 327 331 335 334 333 333 332 334 338 336 333 336 338 339 348 352 350 351 350 348 348 347 345 347 345 343 343 342 341 342 342
335 336 336 337 338 338 338 338 334 330 330 330 330 332 332 333 331 327 327 329 327 328 329 329 328 328 328 328 330 331 331 331 332 331 330 331 330 330 330 329 330 330 329 329 331 332 332 328 325 322 316 315 323 327 327 324 325 328 334 336 335 337 335 334 337 341 340 338 338 337 341 348 351 350 351 350 347 347 345 344 343 343 341 338 338 338 338 337
Wind_Speed
13 13 13 13 13 12 12 11 10 10 10 11 10 10 10 10 9 9 11 12 13 15 16 17 17 19 19 20 22 24 26 24 17 14 11 6 5 7 6 6 8 7 5 7 9 11 10 9 11 11 8 8 4 2 3 3 2 2 4 7 7 8 9 9 11 9 9 9 9 9 6 6 3 3 5 6 7 7 5 1 2 1 5 8 12 14 13 12
13 13 13 13 13 12 12 11 10 10 10 11 10 10 10 10 9 9 10 12 13 14 15 17 17 18 19 20 21 23 26 24 18 17 12 6 5 7 7 7 7 6 4 8 11 11 11 8 6 8 9 4 2 4 2 3 2 3 5 6 7 8 10 9 10 9 9 9 8 11 9 7 3 3 6 4 6 9 7 4 3 6 10 10 13 13 13 12
13 13 13 13 13 12 12 12 11 10 10 10 9 9 10 9 8 9 10 11 13 14 15 16 17 18 18 19 21 22 23 19 14 9 7 7 6 6 6 6 6 6 5 9 12 13 13 11 11 11 10 4 3 3 3 4 4 5 5 5 7 8 10 9 9 9 8 9 9 9 9 7 2 1 3 1 3 6 8 5 5 9 10 9 11 11 13 13
14 13 13 13 13 13 12 12 11 11 10 10 9 9 9 8 8 9 10 11 12 13 15 16 17 18 18 19 20 21 17 12 7 3 7 6 5 4 5 5 6 7 6 10 13 15 16 15 15 11 10 8 2 5 6 7 4 5 5 6 9 8 8 10 10 9 8 8 7 6 8 7 4 0 2 5 4 3 5 6 6 9 6 9 11 9 10 11
14 14 13 13 13 13 12 12 12 11 10 10 9 9 9 8 7 8 10 11 11 13 14 16 17 18 19 19 19 17 10 6 2 6 6 6 5 4 3 3 5 6 7 12 13 16 17 15 16 12 10 10 1 6 6 7 5 3 9 9 11 10 9 11 10 7 8 8 7 8 8 6 6 4 8 11 8 6 5 5 11 12 6 7 10 9 8 8
14 14 13 13 13 13 13 12 12 11 10 10 9 9 9 7 7 8 9 10 11 12 13 15 17 18 20 19 17 10 6 3 4 3 4 7 6 4 2 3 4 4 7 12 15 16 15 15 14 8 5 6 3 4 5 7 7 4 9 11 13 13 9 9 9 9 9 9 9 11 9 7 8 9 11 15 12 12 15 11 12 12 6 5 7 7 8 8
14 14 13 13 13 13 13 12 12 11 10 10 9 9 8 7 7 7 9 10 10 12 13 15 16 18 21 20 13 5 9 5 3 3 4 7 7 5 3 3 5 4 6 12 14 12 11 14 12 11 8 3 2 3 6 3 5 7 6 11 14 14 9 7 9 9 8 9 9 9 9 10 10 11 12 14 13 16 20 12 12 16 10 6 8 6 5 5
14 14 14 13 13 13 13 13 13 12 10 10 9 9 8 7 6 7 9 9 10 11 12 14 15 17 20 19 9 5 9 3 8 6 5 7 7 6 5 4 5 5 8 12 12 11 11 12 12 11 10 7 5 4 7 3 5 9 5 10 13 12 9 8 7 7 7 5 7 7 8 9 8 10 12 13 14 14 13 10 10 16 14 10 10 8 8 8
14 15 14 13 13 13 14 14 13 12 11 10 9 8 8 6 6 7 8 9 9 10 11 13 14 15 16 12 8 6 2 8 11 7 7 7 6 6 5 5 6 7 11 12 11 11 8 10 10 10 12 8 7 5 7 6 4 9 4 8 10 13 10 5 6 6 5 4 5 7 6 7 7 7 11 12 13 12 9 9 10 13 16 12 9 9 8 3
15 15 15 14 14 14 14 15 14 13 11 10 9 8 7 6 6 7 8 8 8 9 11 12 13 15 13 9 9 5 4 10 8 8 8 6 6 5 6 7 8 9 11 12 11 9 6 8 10 9 12 8 7 1 1 4 6 4 3 7 8 12 11 5 6 7 5 5 6 6 6 8 10 8 8 9 11 12 10 10 8 8 13 12 9 8 8 7
15 15 15 14 14 14 15 15 14 11 10 9 7 7 6 5 6 7 7 7 8 9 10 11 13 14 12 9 8 3 5 5 6 8 8 7 8 8 8 9 9 10 11 11 12 10 9 10 11 9 8 8 9 3 4 5 2 2 4 7 7 9 11 8 6 7 5 3 5 5 5 8 11 10 7 6 9 12 10 8 7 8 9 8 8 6 5 5
15 15 16 15 15 15 14 14 12 9 8 7 6 6 6 5 6 6 7 7 6 7 9 11 12 13 11 9 9 6 1 2 3 5 8 8 9 10 8 9 8 10 10 11 12 13 12 12 11 11 9 10 12 5 6 2 3 4 4 3 7 8 7 7 5 6 6 3 4 4 4 6 9 8 6 5 7 11 9 6 6 6 5 5 6 5 5 6
15 15 16 16 16 15 14 13 11 9 7 6 6 5 5 5 5 6 6 5 5 7 8 10 10 10 9 7 9 10 4 3 4 3 6 8 9 9 9 10 9 10 10 11 12 12 12 12 12 12 10 10 9 6 1 3 3 4 4 2 3 5 4 7 6 8 8 5 5 3 2 5 6 3 4 6 6 7 7 5 6 5 3 3 3 4 5 8
16 15 16 16 15 14 13 12 10 8 7 6 5 5 5 5 5 5 6 5 5 6 7 10 11 8 5 8 9 9 5 2 5 6 8 9 10 10 10 10 10 11 11 11 12 12 12 13 13 11 11 11 5 4 6 4 2 3 8 4 6 5 4 6 7 10 8 6 8 5 4 3 3 4 3 4 5 3 2 6 8 6 4 2 2 2 4 7
16 15 15 15 14 13 12 11 9 7 6 6 5 5 5 5 5 5 5 5 4 5 8 11 9 5 5 10 9 7 6 5 5 9 10 10 11 11 10 11 12 11 11 13 12 12 12 12 12 10 9 7 7 7 6 4 3 5 6 7 9 4 4 8 10 11 7 7 12 5 5 4 4 5 5 5 4 2 1 5 8 8 6 4 3 4 4 6
16 15 15 15 14 12 12 10 8 6 6 5 5 5 5 5 4 5 5 5 4 5 7 8 6 7 6 4 0 5 9 10 11 12 12 12 12 12 12 11 10 12 12 13 12 11 11 11 10 9 8 5 7 8 4 5 5 5 7 7 8 7 6 8 11 11 6 8 13 9 4 5 5 5 7 8 6 4 2 3 5 6 5 4 4 5 2 3
16 16 15 15 13 12 10 9 8 6 5 5 5 5 4 4 5 5 5 4 5 5 7 9 7 7 8 4 1 6 10 12 15 13 11 10 11 13 13 7 7 11 12 13 13 12 11 9 8 8 8 8 6 4 4 5 4 3 6 5 1 10 11 7 10 10 7 6 8 8 4 7 11 8 7 10 7 1 2 3 5 4 2 1 1 3 3 1
17 16 15 14 12 11 9 8 7 5 4 4 3 3 3 4 5 5 5 3 3 5 8 10 9 6 7 8 8 10 12 15 16 11 10 10 12 14 10 6 8 10 10 11 11 10 8 6 7 8 6 6 5 4 4 5 9 8 6 7 5 5 9 7 7 10 11 7 5 5 4 7 12 10 6 7 8 5 0 2 5 3 2 4 4 5 3 2
16 15 14 13 11 10 8 7 6 4 3 1 2 5 4 4 5 6 8 6 4 5 3 4 9 3 2 7 10 8 7 13 16 12 11 11 11 12 10 9 11 9 8 7 7 8 7 5 6 7 6 6 5 5 5 10 11 13 9 6 8 2 7 9 8 10 12 8 3 4 6 6 10 13 9 5 6 7 3 6 6 4 4 5 4 3 2 3
16 15 14 12 10 9 7 7 5 3 3 4 3 6 5 3 4 4 6 9 10 11 7 3 12 8 5 3 4 1 3 4 10 11 12 11 10 11 10 11 10 8 8 8 7 6 6 7 6 8 9 4 8 10 9 9 10 11 9 9 11 5 7 10 10 11 9 4 4 7 6 5 8 14 13 8 7 8 8 8 6 2 3 5 4 3 3 4
15 14 12 10 9 8 6 6 4 4 6 4 3 5 4 4 3 1 1 9 15 19 16 10 12 11 8 5 4 2 2 3 8 10 14 15 13 10 8 10 10 8 8 11 11 4 5 7 7 14 11 6 8 9 8 9 11 11 10 9 10 7 6 12 11 11 6 1 4 6 3 4 10 13 14 10 7 8 9 8 7 3 3 5 5 3 2 3
15 13 11 10 8 6 5 5 4 5 7 4 4 9 6 9 6 6 7 7 11 18 18 13 14 11 8 7 4 3 5 7 11 13 17 16 13 11 8 10 11 9 10 11 10 6 6 6 10 18 9 9 5 8 8 10 10 9 9 8 6 5 6 10 10 8 5 1 4 6 5 5 12 13 12 10 6 6 6 5 7 6 5 1 3 3 2 1
14 11 10 9 6 5 4 3 4 6 8 7 8 11 7 9 8 9 8 8 8 13 15 13 14 11 9 10 8 7 7 10 12 14 18 16 13 12 11 11 12 11 12 11 10 7 6 6 12 13 6 7 6 8 10 10 8 8 7 9 6 5 6 4 8 9 7 3 5 7 6 3 10 11 10 7 8 8 4 2 5 7 7 4 2 1 2 1
13 11 9 7 4 2 1 2 3 5 9 10 13 14 10 9 9 10 7 7 7 8 13 14 12 11 11 7 6 11 10 10 10 12 18 17 12 12 13 13 12 12 12 13 13 11 10 9 11 8 7 6 9 9 11 8 8 10 6 8 7 8 9 6 1 7 9 6 8 8 5 4 9 9 9 8 9 10 5 4 4 6 7 5 3 3 0 1
12 10 8 4 2 3 2 2 5 6 7 10 15 15 11 9 7 8 7 5 7 6 10 13 10 10 12 7 5 9 8 9 11 11 15 16 13 11 11 10 9 11 13 15 15 12 13 13 12 8 5 7 9 8 10 9 8 8 8 8 8 10 10 9 10 9 6 4 10 9 4 3 9 10 11 9 8 10 7 5 3 2 4 5 3 3 1 0
11 10 7 3 3 4 2 2 4 7 9 11 11 8 7 7 6 7 5 4 6 6 9 9 8 9 12 10 7 8 8 9 11 13 13 17 15 13 10 8 7 11 12 11 10 8 9 12 14 11 8 9 10 9 9 9 8 3 8 12 11 10 11 10 12 10 7 6 5 8 3 0 8 9 10 11 9 9 6 4 4 2 2 4 4 2 1 1
11 10 6 5 7 6 2 2 3 5 7 5 3 2 3 3 4 6 4 4 6 8 10 7 7 8 10 10 10 8 6 4 11 15 14 17 17 14 12 10 8 10 10 7 6 7 9 13 15 10 7 8 9 10 8 7 9 3 10 13 11 11 12 12 12 9 7 9 5 2 3 3 4 7 11 13 12 8 4 5 5 2 4 5 5 2 2 2
10 9 5 7 11 11 5 5 7 6 2 3 3 2 2 3 5 5 4 6 5 7 8 6 5 6 7 9 12 10 6 3 10 11 9 13 15 12 13 14 11 11 11 9 8 8 9 13 15 10 6 6 9 11 7 7 9 6 13 12 11 10 11 10 8 6 6 7 7 4 4 2 3 7 10 14 14 10 7 7 5 4 6 5 6 5 3 2
9 7 6 9 13 13 6 6 9 7 6 6 5 5 3 4 6 4 5 5 5 5 4 5 6 7 8 9 12 12 7 6 6 9 10 10 12 12 10 14 15 12 12 14 11 11 10 10 12 13 8 7 13 10 5 6 10 11 13 12 11 10 11 10 6 6 7 6 8 9 5 3 3 7 8 10 12 11 10 9 7 7 6 3 5 5 4 2
7 6 7 11 11 8 5 7 10 6 7 8 7 6 5 6 5 5 6 4 4 6 4 5 7 10 12 10 11 12 11 8 3 8 13 9 11 12 7 9 13 12 11 13 13 15 15 8 4 9 9 8 14 10 6 4 10 10 10 10 11 12 10 6 5 6 6 4 9 11 8 6 1 4 5 6 7 12 14 11 10 10 8 6 3 4 5 5
7 7 10 15 11 5 6 5 4 4 6 8 7 7 7 5 4 7 7 2 3 7 7 7 10 13 14 12 10 11 12 10 5 7 10 7 10 11 6 6 7 8 9 10 11 15 18 13 4 6 10 11 13 11 7 7 8 7 8 7 7 8 6 5 4 4 4 5 9 9 8 7 3 2 5 6 6 12 16 13 14 14 12 9 5 8 8 6
7 8 13 18 14 10 8 3 6 5 6 7 7 6 6 5 6 8 5 2 3 8 8 9 12 13 15 14 11 12 12 10 10 8 8 8 9 10 9 8 5 6 8 8 10 12 14 14 10 9 10 11 13 9 8 11 9 9 8 6 6 6 5 6 5 3 4 7 10 8 8 6 5 4 5 9 6 11 14 12 14 15 14 12 8 9 9 7
7 9 15 19 16 15 9 6 5 6 7 7 7 5 5 5 7 9 7 4 4 7 8 10 14 14 15 13 11 13 12 10 12 11 10 10 9 10 13 14 11 9 8 7 8 9 9 11 14 13 8 9 11 9 8 9 7 9 9 5 5 5 6 7 6 5 5 7 9 9 7 3 4 6 9 10 5 9 13 11 13 14 14 14 10 8 8 8
6 9 13 16 18 18 12 8 5 5 8 7 6 5 7 7 7 11 11 6 6 7 7 10 14 14 14 12 11 12 11 10 11 11 10 10 9 9 12 15 16 12 8 7 7 7 8 8 11 13 8 9 11 10 10 10 10 10 9 9 7 4 5 7 5 6 7 8 11 10 6 4 3 1 5 6 3 10 14 10 11 12 11 12 11 9 7 6
5 7 9 10 15 17 11 6 4 4 8 6 6 6 8 7 7 10 11 7 5 6 5 9 13 13 12 11 12 13 10 8 10 11 9 9 8 8 9 11 15 14 9 7 6 6 8 7 8 15 13 9 12 11 10 10 10 8 7 8 6 6 6 7 7 8 10 8 8 6 3 4 5 4 7 8 6 9 14 13 12 10 8 9 8 6 4 4
6 6 6 8 12 13 11 7 4 4 8 5 6 7 7 9 7 5 7 6 4 5 7 8 10 10 9 9 10 13 12 9 10 10 8 10 10 11 10 9 13 15 13 8 5 4 5 7 9 16 12 6 7 9 9 8 6 5 6 6 7 8 7 8 7 8 9 7 5 4 3 5 7 6 11 14 15 15 12 12 12 9 7 7 7 8 8 8
4 5 5 9 12 10 11 9 6 6 7 5 7 8 8 10 8 3 5 1 4 6 8 8 8 9 9 8 9 12 12 9 9 8 7 9 10 11 12 11 13 16 16 11 6 8 5 6 5 12 11 10 9 9 7 7 8 7 7 8 11 8 7 6 5 6 7 6 6 6 6 8 7 5 9 11 14 15 14 14 15 15 13 11 11 12 11 10
4 7 7 10 13 11 11 11 7 6 6 5 8 10 9 11 10 5 6 6 1 6 6 6 7 8 9 9 9 11 11 8 8 7 7 7 8 10 12 10 11 14 16 12 6 8 7 5 2 4 5 8 10 6 8 9 10 9 10 11 9 6 6 5 4 6 7 6 7 6 9 11 6 4 5 6 8 10 10 9 10 10 7 4 6 8 7 5
7 8 5 10 13 12 12 11 7 6 6 6 8 8 8 13 11 1 4 7 7 5 6 8 7 8 10 9 8 11 11 9 8 7 7 6 6 10 11 8 9 12 13 12 8 6 6 4 2 2 3 3 5 3 7 8 11 9 8 7 4 4 6 6 4 5 7 6 8 6 8 7 3 4 4 6 6 7 8 8 9 9 9 8 6 5 6 5
7 5 4 13 15 13 13 9 7 6 6 8 8 7 8 9 7 2 2 6 8 5 5 5 4 7 10 10 9 10 10 10 8 6 7 6 6 7 10 9 8 10 11 13 10 5 4 4 3 2 4 4 1 5 9 6 4 6 5 5 4 4 4 6 6 6 6 6 7 6 4 2 3 6 4 7 9 8 8 8 7 7 8 8 8 8 6 5
8 5 5 15 18 16 12 7 6 6 7 8 9 10 8 6 4 3 4 8 9 8 7 7 9 5 8 10 9 9 9 9 8 7 6 7 6 5 7 8 7 7 9 10 10 6 3 4 4 3 5 4 3 5 6 6 6 2 4 5 6 5 4 6 6 6 6 7 8 5 2 0 4 5 4 6 8 7 8 8 6 7 5 3 3 4 3 1
8 3 8 18 20 16 10 6 6 6 7 7 9 10 5 1 4 1 1 7 9 10 8 5 10 9 7 11 10 8 9 8 8 8 6 7 9 8 7 9 10 8 7 8 9 8 4 4 4 6 5 3 3 7 6 7 8 7 6 7 7 5 4 5 5 7 7 7 9 6 4 0 4 4 5 8 9 7 7 7 8 9 6 4 5 5 3 2
5 3 12 18 19 15 9 6 7 7 8 9 12 14 7 1 4 5 5 7 8 8 8 5 10 9 4 10 10 7 10 7 7 9 6 7 7 4 8 9 10 8 5 6 8 7 4 3 5 7 3 3 2 4 4 4 6 7 7 7 6 5 5 6 7 7 6 7 8 5 5 2 2 4 6 8 10 8 7 8 10 9 6 6 6 4 3 3
4 4 10 14 17 14 8 6 8 7 8 11 12 14 9 3 6 9 9 7 6 8 8 7 10 8 4 10 10 6 10 7 7 9 7 5 4 6 6 6 8 8 5 4 6 4 4 3 3 6 5 4 5 5 4 4 5 6 6 5 5 7 8 8 8 6 6 10 10 5 3 3 2 4 6 7 10 10 9 9 9 8 7 6 5 5 4 4
5 4 7 9 13 12 8 7 8 6 8 11 12 12 9 6 8 11 11 9 8 8 7 8 11 9 7 10 7 5 10 8 7 8 6 2 7 5 4 5 6 10 5 2 2 1 4 5 4 4 7 4 2 2 2 2 4 5 7 8 8 10 10 9 8 5 5 9 11 6 3 5 5 5 6 6 7 10 10 9 8 7 7 6 6 5 5 6
5 2 5 7 8 9 8 8 10 9 7 9 10 10 12 11 9 11 12 10 8 9 9 8 10 12 11 7 5 5 10 9 7 5 6 4 5 7 5 6 10 9 3 8 6 2 4 5 3 3 6 5 3 3 3 3 5 7 8 8 8 8 9 8 7 6 4 3 5 5 4 6 6 4 6 6 6 8 8 8 8 7 7 7 6 6 6 7
5 4 4 6 6 7 8 9 10 10 11 11 7 9 14 14 11 12 13 10 9 10 10 9 11 13 10 6 7 8 9 10 5 2 8 8 4 8 6 7 11 4 6 4 2 2 5 5 4 3 5 8 8 6 6 5 7 8 9 10 9 8 9 8 6 8 9 4 3 5 5 4 4 5 6 5 5 6 5 5 6 6 7 7 6 6 6 6
5 4 2 5 6 7 8 10 12 13 14 14 7 6 12 13 11 10 11 10 11 11 10 9 11 14 10 7 10 8 6 9 5 3 9 8 6 6 6 8 10 6 1 6 6 3 5 7 6 4 4 9 8 6 7 7 7 8 8 9 8 8 11 11 8 10 11 6 5 5 5 4 4 6 7 6 6 6 4 4 5 6 7 7 6 5 5 6
4 4 5 6 6 7 9 13 15 14 14 12 6 5 8 11 12 9 8 9 11 11 12 10 9 14 13 10 10 8 6 7 7 6 6 2 6 4 5 6 8 8 6 8 6 4 5 5 6 4 4 8 8 6 6 7 9 9 7 7 7 6 10 13 11 10 10 7 6 6 6 6 6 7 8 6 5 6 5 5 6 5 5 7 5 3 5 6
3 2 4 9 10 7 6 9 13 12 11 9 7 7 9 11 12 9 9 9 10 11 13 13 11 13 13 11 9 8 10 6 6 4 5 2 5 6 4 5 7 8 8 10 6 6 4 3 4 5 6 8 9 8 7 8 11 7 7 8 8 8 10 12 11 10 9 5 4 6 6 6 6 6 8 6 4 4 4 4 4 3 5 9 8 6 7 6
5 3 3 7 8 7 8 7 9 9 8 8 8 8 10 13 13 11 11 11 11 12 13 14 12 12 12 14 10 5 8 3 7 3 9 5 3 4 3 3 5 8 9 10 6 7 4 4 3 4 7 7 7 9 9 9 9 4 12 10 7 8 9 10 9 10 9 7 7 8 6 4 5 6 6 6 4 4 3 3 3 4 5 9 8 7 7 7
8 7 5 6 7 6 8 7 6 6 6 7 9 10 12 13 12 10 10 10 12 14 12 13 13 11 8 9 5 5 7 4 8 4 3 1 4 3 2 2 2 3 5 7 6 6 3 4 3 3 4 5 7 10 10 9 6 3 7 6 6 5 5 7 7 11 10 8 7 7 5 3 3 4 5 4 4 5 5 4 3 3 5 7 7 6 6 7
Wind_Direction
347 347 347 344 343 341 338 333 324 318 312 311 313 312 316 325 330 327 325 323 324 326 328 330 331 332 333 332 333 334 328 324 316 295 271 259 300 304 294 287 291 302 303 284 264 262 274 257 241 251 265 264 254 36 339 286 290 347 45 56 45 50 48 41 45 45 53 72 118 129 101 96 111 130 146 168 129 117 147 153 304 145 103 97 117 133 139 144
345 345 344 343 342 339 339 335 327 319 311 309 309 310 315 323 329 324 322 322 323 326 328 329 330 331 331 331 334 334 329 322 300 278 260 250 281 274 278 282 282 298 288 263 261 284 318 327 309 295 278 263 39 18 325 295 312 37 48 66 60 58 61 52 53 58 57 56 91 112 107 103 89 119 160 192 123 129 133 124 189 131 106 108 121 135 142 148
345 343 341 339 339 338 337 334 329 321 314 311 308 309 313 321 327 321 319 321 324 325 326 327 328 329 329 331 333 333 331 316 289 262 218 220 256 255 260 273 277 290 286 272 282 305 319 313 300 293 290 299 44 343 350 10 357 56 56 71 77 75 74 70 66 58 64 63 64 94 113 116 103 146 154 34 64 125 118 135 178 123 115 129 126 135 146 151
343 341 339 337 337 336 334 332 329 321 316 313 310 310 313 323 323 318 318 319 323 323 325 327 327 329 328 329 329 331 326 296 277 111 138 182 218 231 253 274 277 289 294 280 287 299 298 292 285 278 281 283 59 45 20 18 7 62 66 85 94 89 80 72 67 59 60 56 45 80 108 114 122 52 57 71 43 46 109 160 146 104 123 136 127 137 150 149
341 339 337 336 334 333 332 330 326 319 318 315 312 311 315 322 318 316 315 318 322 322 326 325 326 328 326 327 325 326 312 269 101 90 129 167 188 215 245 270 282 293 277 275 289 293 290 286 278 263 251 263 2 60 32 15 353 56 72 82 95 91 72 60 57 59 56 42 28 45 70 96 109 69 38 56 54 35 66 143 118 114 166 150 131 141 143 133
340 338 336 334 332 331 329 328 322 317 317 314 312 312 316 320 314 312 311 317 321 322 327 325 329 329 326 326 320 306 269 268 79 106 160 164 179 197 217 258 281 292 265 273 285 287 295 296 294 302 274 265 326 48 54 16 358 41 78 79 88 87 67 56 54 47 43 34 28 28 41 63 72 69 53 51 48 44 48 35 55 87 154 160 117 132 137 130
339 337 335 333 330 327 326 325 320 317 315 312 312 313 317 316 309 308 309 317 321 323 328 324 330 331 330 329 318 252 244 275 105 163 193 172 174 187 213 252 273 282 264 274 285 296 316 314 335 347 320 359 357 54 67 2 43 63 82 87 89 91 73 65 62 49 48 35 30 26 30 44 56 66 67 70 61 52 63 55 41 64 77 60 47 31 46 85
339 336 333 331 328 325 322 321 319 315 312 309 311 317 317 313 306 305 309 317 321 324 325 323 330 335 336 334 322 242 244 220 123 147 180 180 177 198 224 251 265 259 262 273 289 308 323 325 356 342 323 26 335 16 54 279 98 73 66 89 96 101 86 82 82 69 78 50 24 30 31 31 50 72 68 73 75 67 86 115 103 92 87 67 62 51 32 19
337 333 331 330 326 322 319 318 316 311 311 309 312 319 314 308 303 303 310 316 320 322 323 322 326 335 336 326 302 277 240 111 122 151 167 185 194 208 223 236 232 227 263 279 285 299 324 337 357 336 330 354 302 8 41 288 66 67 66 97 107 111 102 98 105 85 72 67 42 35 37 25 18 66 70 60 76 83 83 91 93 104 106 104 108 106 103 100
336 332 329 328 323 319 319 318 313 308 308 305 310 316 308 305 300 303 310 314 319 317 320 319 325 335 331 307 282 273 111 111 133 149 153 179 196 208 224 237 236 236 271 289 288 305 346 341 340 327 316 309 286 355 62 319 32 51 93 100 105 115 121 128 114 95 55 63 80 46 38 39 26 44 67 59 75 82 69 67 66 78 98 110 115 115 134 159
334 330 327 326 320 318 319 318 313 308 307 308 312 310 304 301 297 305 308 311 316 312 316 316 325 336 325 299 279 259 112 134 151 145 154 169 190 209 224 238 253 262 282 295 295 322 349 342 336 317 316 325 311 319 75 38 23 194 117 112 108 108 119 125 119 106 81 64 90 77 58 48 44 54 72 80 80 78 68 64 64 65 84 100 107 121 147 156
331 329 325 323 319 316 317 317 316 315 317 318 313 306 301 297 299 304 302 307 310 306 312 311 325 339 321 287 255 245 85 158 160 156 170 177 203 217 232 243 255 272 288 298 306 331 337 333 325 308 325 329 307 333 61 24 237 147 113 147 115 103 107 117 128 123 125 109 77 97 103 55 48 63 76 80 80 86 85 73 72 73 78 91 111 144 160 157
328 327 323 319 316 314 314 313 312 315 322 321 312 306 296 295 298 297 298 302 298 300 307 306 322 330 307 285 240 222 212 192 177 188 191 196 219 221 236 252 259 270 281 289 301 316 314 313 312 309 314 302 311 357 59 268 313 111 151 236 142 153 143 134 149 140 141 134 102 103 99 53 54 89 75 57 62 83 98 103 99 91 79 93 129 156 162 160
326 323 320 319 315 314 313 310 311 316 318 316 308 299 294 294 292 293 293 290 289 295 298 301 313 315 276 275 255 200 182 206 186 209 210 204 224 228 230 246 259 264 270 277 287 296 298 303 300 292 283 268 286 322 221 205 345 172 164 181 227 216 158 175 174 156 165 156 143 118 70 79 121 145 121 64 60 60 131 135 134 134 135 156 162 165 160 157
322 322 319 316 314 314 313 310 315 316 311 310 303 295 293 286 280 282 280 282 287 284 296 300 290 281 266 271 265 181 184 249 225 218 214 207 222 232 228 234 252 259 265 275 280 285 288 294 289 284 292 266 236 258 238 198 220 210 185 192 218 220 165 194 176 172 195 154 163 166 83 119 151 137 139 113 111 255 271 129 136 137 142 163 181 197 174 146
321 321 318 315 313 313 311 312 317 314 305 302 296 290 281 277 273 268 271 275 277 274 293 299 247 234 272 296 16 167 202 223 230 223 211 214 220 229 231 224 241 259 261 265 273 280 278 279 279 276 292 283 249 255 247 235 229 229 246 224 194 173 172 185 168 174 190 151 176 200 116 128 159 157 156 143 162 235 329 73 90 100 132 173 185 185 140 115
322 319 317 316 314 312 312 317 319 311 300 294 290 282 267 270 259 252 269 266 274 279 272 287 293 265 264 293 347 222 217 213 223 219 202 215 229 239 246 227 229 253 258 258 258 264 267 267 270 261 250 250 270 268 235 275 312 279 261 286 137 163 167 165 160 161 168 168 192 200 139 135 154 159 163 154 155 160 22 67 60 54 107 98 81 85 52 80
321 318 315 314 313 314 315 319 317 305 293 289 294 293 278 274 262 258 267 261 277 277 262 267 282 289 254 248 256 238 218 211 213 208 199 209 229 248 265 267 249 247 255 259 246 244 253 254 263 279 271 251 268 260 252 334 344 335 330 339 346 168 159 141 142 149 164 187 217 190 108 110 141 142 158 161 137 121 72 74 63 13 26 35 18 47 24 347
318 315 313 311 313 315 314 314 306 291 271 197 53 348 317 287 273 254 241 234 212 231 268 203 203 278 336 202 226 230 207 206 201 198 209 207 215 236 249 257 262 261 259 252 217 218 243 249 251 271 278 276 309 333 344 358 339 327 335 304 298 315 122 126 135 146 164 182 197 146 116 128 144 140 157 176 131 118 93 75 64 348 1 34 360 22 18 3
315 313 312 310 311 312 309 307 289 261 215 160 38 326 280 260 252 212 208 221 224 244 286 188 196 247 295 200 206 143 80 182 192 199 214 211 214 227 231 240 254 258 258 258 227 199 228 259 266 263 259 289 356 355 347 338 317 308 305 281 286 300 119 120 127 142 168 188 116 112 126 141 131 138 158 177 159 125 101 98 107 287 344 23 348 352 21 20
313 310 310 307 309 306 301 301 269 229 209 187 356 287 272 352 323 347 257 227 224 237 259 251 229 253 279 309 354 6 341 207 199 216 222 217 219 225 217 224 239 238 234 254 261 240 227 258 272 265 276 17 2 324 317 307 303 297 289 283 295 317 64 88 103 133 160 213 133 145 196 158 130 143 156 169 175 136 119 124 133 137 37 13 329 339 16 18
311 308 306 304 307 302 297 296 257 222 210 211 277 255 285 360 345 326 317 270 234 227 236 243 244 261 270 270 283 293 289 236 213 222 224 217 213 217 207 207 229 240 229 236 254 258 238 246 257 257 284 27 344 292 289 285 291 294 290 285 294 344 42 83 99 124 142 170 158 175 244 193 147 151 158 167 168 115 113 137 136 126 107 153 279 327 327 23
308 305 301 298 303 301 288 268 239 220 211 217 242 247 289 346 331 318 301 284 271 228 220 225 232 241 240 236 228 219 246 245 225 212 212 212 207 213 221 217 220 234 239 235 232 240 240 238 259 274 345 13 308 282 271 267 265 263 270 279 292 14 20 76 124 149 173 195 154 175 245 191 135 145 149 141 122 97 65 84 116 117 128 169 174 90 269 144
306 301 294 294 299 290 261 238 228 229 221 226 249 261 295 330 323 321 303 275 280 234 209 212 219 230 231 230 212 207 224 240 230 210 201 204 208 210 226 236 227 224 235 246 246 247 258 255 260 304 6 316 294 290 276 278 271 268 271 272 298 359 355 347 224 188 189 181 156 185 236 129 131 149 133 103 103 109 84 62 74 88 122 149 117 103 45 70
301 294 288 287 259 202 195 250 232 228 218 229 254 263 276 301 315 321 310 270 259 223 196 203 206 221 221 202 192 211 226 231 233 226 192 188 212 215 216 236 240 234 225 234 250 251 257 267 265 280 317 285 282 273 272 288 282 295 345 351 355 350 333 328 305 281 255 213 164 184 268 115 148 158 138 123 123 126 114 104 94 55 132 140 105 93 85 45
294 285 280 256 197 178 190 266 228 220 219 229 249 251 252 280 311 305 290 260 245 193 168 182 179 190 198 186 189 211 225 219 217 230 201 180 208 228 221 216 226 250 247 234 248 257 255 261 261 273 302 296 287 275 273 292 279 290 12 2 360 330 310 310 301 297 305 306 179 175 283 74 157 163 154 144 138 135 126 140 161 250 202 137 102 101 147 134
288 275 266 216 179 163 191 317 308 250 228 223 241 231 243 288 306 290 265 244 236 180 158 164 161 173 184 177 184 204 239 205 182 218 219 179 193 226 232 223 210 231 261 271 248 244 247 250 251 256 274 277 276 271 278 303 285 316 31 2 336 319 313 317 316 311 303 301 280 178 22 27 140 154 158 142 131 135 159 192 170 238 238 154 123 138 143 93
282 268 247 205 182 176 206 305 310 289 300 40 20 292 298 300 277 270 252 232 197 159 157 151 135 168 185 177 191 212 257 220 172 195 207 171 184 212 222 234 243 226 228 248 256 249 234 243 255 244 230 258 256 257 291 329 289 322 19 352 321 317 308 301 300 294 298 313 311 328 15 16 136 140 153 140 135 149 187 206 184 229 238 159 126 128 98 55
274 257 217 193 187 189 214 295 287 288 344 358 329 307 304 273 259 247 253 238 158 142 161 149 142 176 186 178 198 217 232 226 185 167 177 180 195 216 225 230 250 258 231 225 243 259 239 228 250 246 226 244 256 265 359 348 295 323 348 324 300 284 266 265 282 309 337 347 314 303 302 259 164 142 161 160 157 161 176 200 199 208 211 140 108 115 117 115
260 237 197 181 182 198 235 269 258 269 330 324 312 306 277 252 246 218 217 221 162 155 145 154 170 184 188 183 195 210 215 221 205 164 181 193 202 219 245 221 233 263 253 233 235 250 257 258 278 271 262 258 267 294 3 319 288 307 308 294 289 277 265 278 311 320 323 309 298 302 298 287 235 148 175 180 168 155 160 182 192 188 168 134 114 151 175 151
240 213 185 173 167 190 224 242 262 285 309 309 305 283 255 229 233 225 195 177 194 160 145 172 178 178 189 197 192 194 213 216 182 172 182 181 195 208 231 218 217 248 251 246 239 237 249 257 259 256 262 275 281 294 310 277 265 272 275 279 289 287 289 297 268 258 291 297 293 301 311 320 351 167 178 157 152 155 159 169 177 177 156 142 178 187 177 145
223 199 182 175 171 189 219 302 353 326 306 307 294 258 236 207 219 234 196 155 195 166 168 188 181 180 190 204 199 181 209 213 167 185 204 184 198 202 211 220 197 215 234 235 232 228 234 244 245 232 229 251 268 273 266 257 242 237 249 258 275 287 292 287 272 269 304 288 287 322 351 360 49 56 105 124 152 163 158 161 166 167 150 149 190 187 160 151
204 191 182 182 186 190 211 283 315 324 317 289 270 242 232 224 209 219 206 164 159 173 182 179 179 187 185 202 210 178 200 216 164 185 214 198 208 200 202 223 215 212 231 230 229 226 219 227 238 245 229 209 234 255 254 259 262 251 255 264 273 291 301 294 297 310 312 289 306 355 9 18 77 50 70 103 146 146 143 156 156 155 151 151 171 178 160 158
186 186 182 190 204 197 201 240 244 317 315 266 244 226 226 234 209 213 218 186 169 195 194 169 175 188 186 200 214 178 194 224 179 183 207 199 217 208 195 217 224 226 236 239 245 234 231 227 210 226 235 188 202 238 258 280 290 277 292 311 300 312 318 309 319 327 325 318 327 346 351 11 66 61 60 83 134 130 137 152 142 145 153 147 156 169 165 150
154 172 176 200 223 212 208 235 222 284 296 251 231 228 215 226 206 204 223 214 187 193 181 168 175 184 188 204 213 189 192 225 191 187 210 205 215 219 199 206 216 227 236 227 237 233 239 258 200 204 224 201 191 213 236 261 274 277 292 296 317 356 331 315 335 328 318 316 324 343 25 70 96 95 39 30 35 90 123 133 122 131 142 134 140 144 135 113
113 143 177 215 230 220 214 232 222 250 272 242 228 231 212 228 221 187 219 217 178 180 174 175 186 189 186 200 215 195 191 219 200 188 213 212 215 221 213 205 201 216 233 226 236 243 228 257 213 190 197 205 214 229 224 230 262 290 274 282 357 354 304 303 327 316 307 308 319 346 43 95 99 59 25 30 40 51 73 83 72 60 52 53 48 36 27 27
127 165 202 212 213 211 203 208 212 234 254 241 237 241 226 240 253 272 284 298 123 200 198 174 189 200 187 193 214 190 181 203 195 188 212 203 210 221 216 216 195 203 229 238 275 306 293 279 220 172 177 193 218 263 269 260 288 295 277 316 354 340 297 307 316 306 311 313 315 339 25 60 71 30 8 34 58 60 53 50 46 37 25 16 16 22 21 18
235 218 223 199 192 192 182 187 207 229 242 240 248 255 258 265 258 251 308 334 259 228 216 180 194 210 197 193 199 180 172 186 178 186 219 195 192 210 216 223 193 194 227 228 245 297 294 283 236 171 212 197 187 243 274 256 261 275 292 318 337 320 302 310 314 318 317 306 302 339 48 57 44 31 32 41 68 85 84 80 84 83 77 52 23 34 47 38
264 245 217 169 170 174 170 180 208 232 238 231 242 250 248 263 262 198 25 327 294 255 205 193 198 213 220 216 193 170 173 193 182 184 218 199 170 187 203 218 188 190 225 226 218 261 273 253 197 154 256 225 155 209 261 238 211 226 281 301 299 301 309 315 321 309 301 298 302 337 55 64 5 356 46 80 107 130 134 129 126 132 140 144 151 153 145 160
248 247 153 150 158 162 166 185 212 225 233 229 244 249 220 239 268 62 80 267 273 274 235 231 227 202 214 229 208 172 180 207 199 192 212 187 149 173 198 216 205 189 208 229 236 259 283 248 187 166 230 245 195 211 243 269 188 190 246 274 276 296 316 317 308 297 305 312 311 336 37 53 344 339 6 94 123 153 151 142 141 144 153 160 164 164 160 172
241 248 148 153 156 157 167 197 217 217 231 232 248 256 241 244 251 165 182 232 257 286 288 301 303 255 201 226 222 170 177 216 210 205 212 185 172 201 209 210 216 196 189 220 242 245 254 245 211 206 212 217 280 252 252 332 11 350 288 306 307 304 312 307 297 310 326 314 312 343 75 308 340 339 355 76 107 135 139 139 130 114 122 132 99 89 73 332
256 248 149 155 157 162 178 209 212 213 228 230 243 247 234 302 280 228 171 226 239 269 271 265 282 275 196 212 229 173 173 213 216 211 212 199 204 203 184 189 207 216 203 210 227 230 241 275 261 236 208 187 308 327 349 357 345 323 297 292 293 297 310 310 313 330 331 311 317 357 92 83 332 5 39 63 82 98 108 112 106 103 109 95 75 73 62 347
250 133 140 157 165 174 195 217 208 217 232 232 247 249 228 135 269 265 260 232 211 234 251 236 259 272 207 215 236 191 180 201 216 216 201 194 207 162 138 170 193 209 219 201 210 228 239 260 278 269 236 154 204 286 308 301 297 292 275 271 288 316 329 324 326 330 322 322 335 19 92 97 339 31 65 88 98 98 99 103 106 109 111 100 89 87 66 19
245 131 142 168 180 188 211 223 205 208 223 228 245 256 255 240 239 237 235 230 208 217 231 229 246 266 241 236 245 187 176 192 208 228 235 184 134 77 105 158 183 197 203 186 186 205 225 216 250 282 268 190 197 240 264 297 306 287 285 318 342 333 329 324 325 328 328 348 11 41 83 93 83 66 80 98 103 103 103 104 109 113 114 113 104 100 88 62
269 162 145 175 191 203 227 237 232 226 220 224 234 244 250 239 230 237 240 235 221 219 225 226 241 264 250 237 254 189 182 206 219 228 258 178 120 122 174 173 200 214 215 8 15 176 219 214 191 240 267 260 243 265 263 309 314 282 298 335 337 327 336 333 328 339 348 9 34 49 77 105 115 106 94 85 85 96 102 104 109 109 109 113 109 104 91 74
291 202 159 171 192 214 232 244 259 267 256 243 233 228 237 235 220 224 239 249 237 223 235 228 224 254 256 220 238 232 188 209 254 226 211 209 139 145 176 187 209 225 328 7 359 317 250 241 204 222 278 299 312 305 282 267 270 269 290 315 318 330 346 334 324 344 340 359 60 58 72 111 120 99 80 70 74 87 96 103 106 109 113 112 105 100 87 77
281 271 195 170 184 217 228 233 242 249 258 262 242 209 221 233 227 204 202 225 236 222 237 238 208 229 247 185 199 235 191 189 259 282 202 209 131 115 148 204 207 201 2 332 232 264 277 265 249 222 254 271 271 286 304 294 284 292 308 320 328 339 340 330 340 8 2 351 75 59 55 90 102 92 91 91 86 79 83 99 107 115 119 116 117 117 104 92
251 278 235 188 194 201 211 226 230 232 244 254 250 210 216 228 233 208 183 203 227 214 222 241 217 215 225 191 195 219 194 183 195 241 222 193 119 119 164 203 197 156 355 251 206 225 275 271 271 245 240 266 272 285 303 300 296 300 302 308 323 339 342 345 357 14 23 47 104 89 82 101 109 110 107 105 113 117 136 150 135 135 134 125 127 125 109 99
290 334 332 306 269 218 207 218 224 227 235 242 246 240 237 234 229 209 177 196 215 206 210 227 220 213 209 202 205 192 178 202 199 212 244 149 120 159 166 180 191 168 192 229 207 202 249 278 300 302 279 279 281 276 280 285 285 291 305 315 330 356 2 3 2 6 29 69 109 105 102 96 86 96 99 97 113 130 151 158 137 137 128 114 117 110 104 114
326 352 329 317 302 277 253 230 220 222 230 236 241 239 235 233 227 202 181 202 203 191 208 218 211 214 202 190 223 209 173 217 264 198 200 188 169 191 177 179 188 160 186 227 207 162 206 277 327 321 288 281 284 276 268 266 270 296 21 14 350 360 2 354 356 8 20 23 40 64 82 79 77 97 109 109 115 122 136 140 122 96 87 108 131 142 126 129
332 300 288 299 292 300 313 282 232 220 223 225 227 231 231 231 225 195 177 204 203 181 202 215 200 211 204 180 206 229 146 170 307 223 185 209 226 213 201 191 186 161 186 225 199 141 180 252 286 288 274 274 283 283 280 272 271 357 51 41 16 15 354 330 351 23 20 354 4 34 51 66 92 108 101 101 117 113 86 73 95 115 110 113 125 131 124 121
340 327 328 303 282 287 299 281 245 228 232 226 213 217 226 224 215 192 172 194 200 184 198 215 197 201 208 162 142 21 53 39 343 4 155 286 322 264 189 126 218 204 199 224 203 159 199 254 255 264 273 281 285 284 285 284 281 10 45 32 31 30 332 320 13 37 31 20 28 45 51 60 102 103 86 92 112 98 72 50 64 92 95 86 78 74 83 84